Allentown, PA

6:24 AM EDT on August 19, 2017 (GMT -0400)
Lehigh Valley International

Weather History for KABE - September, 2013

Change the Weather History Date:

Tuesday, September 10, 2013

  Actual Average Record
Temperature  
Mean Temperature 78 °F 66 °F  
Max Temperature 88 °F 77 °F 96 °F (1983)
Min Temperature 68 °F 55 °F 39 °F (1956)
Degree Days  
Heating Degree Days 0 2  
Month to date heating degree days 14 13  
Since 1 July heating degree days 18 24  
Cooling Degree Days 13 3  
Month to date cooling degree days 50 39  
Year to date cooling degree days 875 718  
Growing Degree Days 28 (Base 50)    
Moisture  
Dew Point 69 °F    
Average Humidity 75    
Maximum Humidity 90    
Minimum Humidity 59    
Precipitation  
Precipitation 0.00 in 0.13 in 2.75 in (1950)
Month to date precipitation 0.79 1.31  
Year to date precipitation 35.63 31.08  
Snow  
Snow 0.00 in 0.00 in 0.00 in (2002)
Month to date snowfall 0.0 0.0  
Since 1 July snowfall 0.0 0.0  
Since 1 September snowfall 0.0 0.0  
Snow Depth 0.00 in    
Sea Level Pressure  
Sea Level Pressure 30.12 in    
Wind  
Wind Speed 7 mph (SW)    
Max Wind Speed 15 mph    
Max Gust Speed 22 mph    
Visibility 8 miles    
Events      
T = Trace of Precipitation, MM = Missing Value Source: NWS Daily Summary

Daily Weather History Graph

Daily Weather History Graph

Search for Another Location

Airport or City:

Trip Planner

Search our weather history database for the weather conditions in past years. The results will help you decide how hot, cold, wet, or windy it might be!

Date:

Astronomy

Sep. 10, 2013 Rise Set
Actual Time 6:37 AM EDT 7:18 PM EDT
Civil Twilight 6:10 AM EDT 7:46 PM EDT
Nautical Twilight 5:37 AM EDT 8:18 PM EDT
Astronomical Twilight 5:03 AM EDT 8:52 PM EDT
Moon 12:02 PM EDT (9/10) 10:18 PM EDT (9/10)
Length of Visible Light 13h 36m
Length of Day
12h 40m
Waxing Crescent, 28% of the Moon is Illuminated
Sep 10
Waxing Crescent
Sep 12
First Quarter
Sep 19
Full
Sep 26
Last Quarter
Oct 4
New

Hourly Weather History & Observations

Time (EDT) Temp. Heat Index Dew Point Humidity Pressure Visibility Wind Dir Wind Speed Gust Speed Precip Events Conditions
12:51 AM 69.1 °F - 62.1 °F 78% 30.14 in 10.0 mi SSW 5.8 mph - N/A   Overcast
1:10 AM 68.0 °F - 62.6 °F 83% 30.14 in 10.0 mi SSW 10.4 mph - N/A   Overcast
1:51 AM 68.0 °F - 63.0 °F 84% 30.14 in 10.0 mi SW 6.9 mph - N/A   Overcast
2:51 AM 68.0 °F - 64.0 °F 87% 30.14 in 10.0 mi SW 8.1 mph - N/A   Overcast
3:51 AM 68.0 °F - 64.0 °F 87% 30.12 in 10.0 mi SSW 8.1 mph - N/A   Overcast
4:51 AM 69.1 °F - 64.9 °F 87% 30.13 in 10.0 mi SSW 6.9 mph - N/A   Overcast
5:51 AM 69.1 °F - 66.0 °F 90% 30.14 in 10.0 mi SSW 5.8 mph - N/A   Overcast
6:51 AM 70.0 °F - 66.0 °F 87% 30.15 in 9.0 mi Calm Calm - N/A   Overcast
7:30 AM 69.8 °F - 66.2 °F 88% 30.14 in 7.0 mi SSW 4.6 mph - N/A   Overcast
7:51 AM 71.1 °F - 66.9 °F 87% 30.13 in 7.0 mi SSW 6.9 mph - N/A   Overcast
8:27 AM 71.6 °F - 68.0 °F 88% 30.15 in 7.0 mi Calm Calm - N/A   Overcast
8:51 AM 72.0 °F - 68.0 °F 87% 30.14 in 7.0 mi SW 4.6 mph - N/A   Overcast
9:51 AM 75.0 °F - 69.1 °F 82% 30.17 in 7.0 mi WSW 9.2 mph - N/A   Overcast
9:58 AM 75.2 °F - 69.8 °F 83% 30.17 in 7.0 mi SW 6.9 mph - N/A   Overcast
10:51 AM 75.9 °F - 69.1 °F 79% 30.15 in 6.0 mi SW 9.2 mph - N/A   Haze
11:14 AM 77.0 °F - 69.8 °F 78% 30.15 in 6.0 mi WSW 10.4 mph - N/A   Haze
11:51 AM 80.1 °F 83.2 °F 70.0 °F 71% 30.12 in 7.0 mi SW 11.5 mph - N/A   Partly Cloudy
12:51 PM 84.0 °F 89.6 °F 72.0 °F 67% 30.11 in 8.0 mi SSW 8.1 mph - N/A   Partly Cloudy
1:51 PM 84.0 °F 88.4 °F 70.0 °F 63% 30.10 in 8.0 mi SW 6.9 mph - N/A   Scattered Clouds
2:51 PM 86.0 °F 92.2 °F 72.0 °F 63% 30.08 in 8.0 mi SW 8.1 mph - N/A   Partly Cloudy
3:51 PM 87.1 °F 92.8 °F 71.1 °F 59% 30.07 in 8.0 mi SSW 12.7 mph - N/A   Partly Cloudy
4:51 PM 86.0 °F 92.2 °F 72.0 °F 63% 30.06 in 8.0 mi WSW 11.5 mph 16.1 mph N/A   Partly Cloudy
5:51 PM 87.1 °F 93.6 °F 72.0 °F 61% 30.06 in 8.0 mi SSW 9.2 mph - N/A   Partly Cloudy
6:51 PM 84.0 °F 90.2 °F 73.0 °F 69% 30.07 in 6.0 mi South 9.2 mph - N/A   Haze
7:51 PM 82.9 °F 88.8 °F 73.0 °F 72% 30.09 in 7.0 mi SSW 9.2 mph - N/A   Clear
8:51 PM 79.0 °F - 73.0 °F 82% 30.10 in 7.0 mi SW 5.8 mph - N/A   Clear
9:51 PM 79.0 °F - 72.0 °F 79% 30.11 in 6.0 mi SW 5.8 mph - N/A   Haze
10:51 PM 75.9 °F - 72.0 °F 87% 30.12 in 6.0 mi SW 3.5 mph - N/A   Clear
11:51 PM 75.0 °F - 72.0 °F 90% 30.12 in 5.0 mi WSW 3.5 mph - N/A   Clear